Weather History for Atwater, CA

Change the Weather History Date:

Saturday, February 16, 2013

  Actual Average (KMCE) Record (KMCE)
Temperature  
Mean Temperature 52 °F 50 °F  
Max Temperature 69 °F 61 °F 70 °F (2013)
Min Temperature 35 °F 39 °F 27 °F (2006)
Degree Days  
Heating Degree Days 13    
Month to date heating degree days  
Since 1 July heating degree days  
Cooling Degree Days 0    
Month to date cooling degree days  
Year to date cooling degree days  
Growing Degree Days 2 (Base 50)    
Moisture  
Dew Point 43 °F    
Average Humidity 89    
Maximum Humidity 100    
Minimum Humidity 38    
Precipitation  
Precipitation 0.00 in 0.09 in 0.43 in (2000)
Month to date precipitation 1.27  
Year to date precipitation 3.88  
Since 1 July precipitation 7.70  
Snow  
Snow 0.00 in - - ()
Month to date snowfall  
Since 1 July snowfall  
Snow Depth -    
Sea Level Pressure  
Sea Level Pressure 30.15 in    
Wind  
Wind Speed 0 mph (NNW)    
Max Wind Speed 6 mph    
Max Gust Speed -    
Visibility 7 miles    
Events      
T = Trace of Precipitation, MM = Missing Value Source: NWS Daily Summary

Daily Weather History Graph

Daily Weather History Graph

Search for Another Location

Airport:

Trip Planner

Search our weather history database for the weather conditions in past years. The results will help you decide how hot, cold, wet, or windy it might be!

Date:

Astronomy

Feb. 16, 2013 Rise Set
Actual Time 6:49 AM PST 5:43 PM PST
Civil Twilight 6:23 AM PST 6:10 PM PST
Nautical Twilight 5:52 AM PST 6:40 PM PST
Astronomical Twilight 5:22 AM PST 7:10 PM PST
Moon 10:15 AM PST (2/16) No Moon Set
Length of Visible Light 11h 46m
Length of Day
10h 53m
Waxing Crescent, 40% of the Moon is Illuminated
Feb 16
Waxing Crescent
Feb 17
First Quarter
Feb 25
Full
Mar 4
Last Quarter
Mar 11
New

Hourly Weather History & Observations

Time (PST) Temp. Windchill Dew Point Humidity Pressure Visibility Wind Dir Wind Speed Gust Speed Precip Events Conditions
12:15 AM 44.6 °F - 44.6 °F 100% 30.25 in 8.0 mi Calm Calm - N/A   Clear
12:35 AM 41.0 °F - 41.0 °F 100% 30.25 in 6.0 mi Calm Calm - N/A   Clear
12:55 AM 41.0 °F - 41.0 °F 100% 30.25 in 5.0 mi Calm Calm - N/A   Clear
1:15 AM 42.8 °F - 42.8 °F 100% 30.25 in 5.0 mi Calm Calm - N/A   Clear
1:35 AM 42.8 °F - 42.8 °F 100% 30.24 in 7.0 mi Calm Calm - N/A   Clear
1:55 AM 42.8 °F - 42.8 °F 100% 30.24 in 9.0 mi Calm Calm - N/A   Clear
2:15 AM 42.8 °F - 42.8 °F 100% 30.24 in 9.0 mi Calm Calm - N/A   Clear
2:35 AM 41.0 °F - 41.0 °F 100% 30.23 in 9.0 mi Calm Calm - N/A   Clear
2:55 AM 39.2 °F - 39.2 °F 100% 30.23 in 7.0 mi Calm Calm - N/A   Clear
3:15 AM 39.2 °F - 39.2 °F 100% 30.22 in 6.0 mi Calm Calm - N/A   Clear
3:35 AM 37.4 °F - 37.4 °F 100% 30.21 in 5.0 mi Calm Calm - N/A   Clear
3:55 AM 39.2 °F - 39.2 °F 100% 30.21 in 4.0 mi Calm Calm - N/A   Clear
4:15 AM 37.4 °F 34.9 °F 37.4 °F 100% 30.20 in 3.0 mi ENE 3.5 mph - N/A   Clear
4:35 AM 37.4 °F - 37.4 °F 100% 30.19 in 4.0 mi Calm Calm - N/A   Clear
4:55 AM 39.2 °F - 39.2 °F 100% 30.20 in 6.0 mi Calm Calm - N/A   Clear
5:15 AM 37.4 °F - 37.4 °F 100% 30.20 in 8.0 mi Calm Calm - N/A   Clear
5:35 AM 37.4 °F 34.9 °F 37.4 °F 100% 30.19 in 8.0 mi WNW 3.5 mph - N/A   Clear
5:55 AM 41.0 °F 37.1 °F 41.0 °F 100% 30.19 in 5.0 mi WNW 5.8 mph - N/A   Clear
6:45 AM 35.6 °F - 35.6 °F 100% 30.20 in 2.5 mi Calm Calm - N/A   Scattered Clouds
7:45 AM 39.2 °F - 39.2 °F 100% 30.21 in 3.0 mi Calm Calm - N/A   Mostly Cloudy
8:45 AM 48.2 °F - 48.2 °F 100% 30.23 in 5.0 mi Calm Calm - N/A   Haze
9:45 AM 55.4 °F - 46.4 °F 72% 30.22 in 7.0 mi Calm Calm - N/A   Mostly Cloudy
10:45 AM 60.8 °F - 46.4 °F 59% 30.22 in 7.0 mi Calm Calm - N/A   Mostly Cloudy
11:45 AM 64.4 °F - 46.4 °F 52% 30.20 in 7.0 mi Calm Calm - N/A   Mostly Cloudy
12:45 PM 69.8 °F - 42.8 °F 38% 30.16 in 7.0 mi Calm Calm - N/A   Mostly Cloudy
1:45 PM 68.0 °F - 44.6 °F 43% 30.13 in 7.0 mi Calm Calm - N/A   Mostly Cloudy
2:45 PM 69.8 °F - 42.8 °F 38% 30.10 in 10.0 mi Calm Calm - N/A   Clear
3:45 PM 68.0 °F - 44.6 °F 43% 30.08 in 10.0 mi Calm Calm - N/A   Clear
4:45 PM 64.4 °F - 48.2 °F 56% 30.06 in 10.0 mi NW 4.6 mph - N/A   Clear
5:45 PM 60.8 °F - 48.2 °F 63% 30.06 in 7.0 mi Calm Calm - N/A   Clear
6:45 PM 57.2 °F - 48.2 °F 72% 30.06 in 7.0 mi Calm Calm - N/A   Clear
7:45 PM 51.8 °F - 48.2 °F 88% 30.06 in 7.0 mi Calm Calm - N/A   Clear
8:15 PM 51.8 °F - 48.2 °F 88% 30.06 in 9.0 mi NNW 3.5 mph - N/A   Clear
8:35 PM 48.2 °F - 46.4 °F 93% 30.05 in 8.0 mi North 3.5 mph - N/A   Clear
8:45 PM 48.2 °F - 48.2 °F 100% 30.05 in 7.0 mi Calm Calm - N/A   Clear
8:55 PM 46.4 °F - 46.4 °F 100% 30.05 in 7.0 mi North - - N/A   Clear
9:15 PM 44.6 °F - 44.6 °F 100% 30.05 in 6.0 mi Calm Calm - N/A   Clear
9:35 PM 46.4 °F - 46.4 °F 100% 30.06 in 6.0 mi North - - N/A   Clear
9:55 PM 46.4 °F - 46.4 °F 100% 30.06 in 6.0 mi Calm Calm - N/A   Clear
10:15 PM 46.4 °F - 46.4 °F 100% 30.05 in 5.0 mi Calm Calm - N/A   Clear
10:35 PM 42.8 °F - 42.8 °F 100% 30.05 in 5.0 mi Calm Calm - N/A   Clear
10:55 PM 44.6 °F - 44.6 °F 100% 30.05 in 7.0 mi Calm Calm - N/A   Clear
11:15 PM 44.6 °F - 44.6 °F 100% 30.04 in 8.0 mi Calm Calm - N/A   Clear
11:35 PM 44.6 °F - 44.6 °F 100% 30.04 in 7.0 mi Calm Calm - N/A   Clear
11:55 PM 42.8 °F - 42.8 °F 100% 30.04 in 4.0 mi Calm Calm - N/A   Clear